Location: Litvinovka
(48.6667°N, 34.3500°E)
Time: 18:22:05
(UTC+00:00)

Lacrosse 5 rocket - Pass Details

Date: 18 September 2020
Orbit: 461 x 635 km, 57.0° (Epoch: 21 October)

Event Time Altitude Azimuth Distance (km) Brightness Sun altitude
Rises 16:31:29 0° 254° (WSW) 2,720 6.1 -7.9°
Reaches altitude 10° 16:33:43 10° 260° (W) 1,858 5.3 -8.2°
Maximum altitude 16:37:49 47° 335° (NNW) 780 2.4 -8.9°
Drops below altitude 10° 16:42:09 10° 50° (NE) 1,963 3.8 -9.6°
Enters shadow 16:43:59 - 55° (NE) 2,664 4.4 -9.9°
